This is the latest recevied weather packets stored in our database for station/object KB1JLI. If no packets are shown the sender has not sent any weather packets the latest 10 day(s).
| Time | Temp. | Humidity | Pressure | Rain* | Wind** | Luminosity | Snow |
|---|---|---|---|---|---|---|---|
| 1778021388 | 23.33° C | 49% | 1006.7 hPa | 0 mm | - | 38 W/m² | - |
| 1778021085 | 23.33° C | 48% | 1006.6 hPa | 0 mm | - | 44 W/m² | - |
| 1778020783 | 23.33° C | 48% | 1006.5 hPa | 0 mm | - | 52 W/m² | - |
| 1778020479 | 23.89° C | 48% | 1006.3 hPa | 0 mm | - | 57 W/m² | - |
| 1778020176 | 23.89° C | 47% | 1006.3 hPa | 0 mm | - | 63 W/m² | - |
| 1778019872 | 23.89° C | 47% | 1006 hPa | 0 mm | - | 66 W/m² | - |
| 1778019568 | 23.89° C | 47% | 1005.9 hPa | 0 mm | - | 72 W/m² | - |
| 1778019266 | 23.89° C | 47% | 1005.8 hPa | 0 mm | - | 68 W/m² | - |
| 1778018963 | 23.89° C | 47% | 1005.9 hPa | 0 mm | - | 65 W/m² | - |
| 1778018659 | 23.89° C | 46% | 1005.8 hPa | 0 mm | - | 62 W/m² | - |
| 1778018357 | 24.44° C | 46% | 1006 hPa | 0 mm | - | 61 W/m² | - |
| 1778018055 | 24.44° C | 46% | 1005.8 hPa | 0 mm | - | 61 W/m² | - |
| 1778017753 | 25° C | 45% | 1005.8 hPa | 0 mm | - | 75 W/m² | - |
| 1778017450 | 25° C | 45% | 1005.9 hPa | 0 mm | - | 71 W/m² | - |
| 1778017147 | 25° C | 44% | 1005.8 hPa | 0 mm | - | 59 W/m² | - |
| 1778016845 | 25.56° C | 43% | 1006.1 hPa | 0 mm | - | 58 W/m² | - |
| 1778016541 | 25.56° C | 43% | 1005.7 hPa | 0 mm | - | 65 W/m² | - |
| 1778016238 | 25.56° C | 42% | 1005.7 hPa | 0 mm | - | 66 W/m² | - |
| 1778015934 | 26.11° C | 42% | 1005.6 hPa | 0 mm | - | 68 W/m² | - |
| 1778015632 | 26.11° C | 41% | 1005.5 hPa | 0 mm | - | 71 W/m² | - |
| 1778015328 | 26.11° C | 42% | 1005.5 hPa | 0 mm | - | 80 W/m² | - |
| 1778015025 | 26.11° C | 42% | 1005.5 hPa | 0 mm | - | 83 W/m² | - |
| 1778014722 | 26.11° C | 42% | 1005.3 hPa | 0 mm | - | 77 W/m² | - |
| 1778014420 | 26.11° C | 41% | 1005.4 hPa | 0 mm | - | 79 W/m² | - |
| 1778014117 | 26.67° C | 41% | 1005.4 hPa | 0 mm | - | 82 W/m² | - |
* Rain latest hour (hover to see other rain measurements)
** Current wind speed in m/s (hover to see current wind gust speed)